TimeEDT,TemperatureF,Dew PointF,Humidity,Sea Level PressureIn,VisibilityMPH,Wind Direction,Wind SpeedMPH,Gust SpeedMPH,PrecipitationIn,Events,Conditions,WindDirDegrees,DateUTC
12:36 AM,53.6,51.8,94,30.12,5.0,Calm,Calm,-,N/A,,Overcast,0,2013-04-28 04:36:00
12:53 AM,54.0,52.0,93,30.12,4.0,Calm,Calm,-,N/A,,Overcast,0,2013-04-28 04:53:00
1:28 AM,53.6,51.8,94,30.09,1.8,Calm,Calm,-,N/A,,Mostly Cloudy,0,2013-04-28 05:28:00
1:38 AM,53.6,51.8,94,30.09,0.5,Calm,Calm,-,N/A,Fog,Fog,0,2013-04-28 05:38:00
1:53 AM,53.1,51.1,93,30.09,0.2,Calm,Calm,-,N/A,Fog,Fog,0,2013-04-28 05:53:00
2:10 AM,53.6,51.8,94,30.08,0.2,Calm,Calm,-,N/A,Fog,Fog,0,2013-04-28 06:10:00
2:22 AM,51.8,51.8,100,30.07,0.2,Calm,Calm,-,N/A,Fog,Fog,0,2013-04-28 06:22:00
2:53 AM,53.1,51.1,93,30.08,0.8,Calm,Calm,-,N/A,,Overcast,0,2013-04-28 06:53:00
3:08 AM,53.6,51.8,94,30.07,4.0,Calm,Calm,-,N/A,,Overcast,0,2013-04-28 07:08:00
3:53 AM,53.1,52.0,96,30.08,2.5,Calm,Calm,-,0.01,Rain,Light Rain,0,2013-04-28 07:53:00
4:03 AM,53.6,51.8,94,30.08,3.0,East,3.5,-,0.01,Rain,Light Rain,80,2013-04-28 08:03:00
4:13 AM,53.6,51.8,94,30.09,3.0,Calm,Calm,-,0.03,Rain,Rain,0,2013-04-28 08:13:00
4:53 AM,53.1,52.0,96,30.06,5.0,ESE,4.6,-,0.15,Rain,Light Rain,110,2013-04-28 08:53:00
5:06 AM,53.6,51.8,94,30.07,8.0,East,5.8,-,0.00,,Overcast,90,2013-04-28 09:06:00
5:27 AM,53.6,51.8,94,30.10,1.8,Calm,Calm,-,0.04,Rain,Heavy Rain,0,2013-04-28 09:27:00
5:44 AM,53.6,51.8,94,30.10,2.0,ESE,3.5,-,0.26,Rain,Heavy Rain,120,2013-04-28 09:44:00
5:53 AM,54.0,52.0,93,30.10,3.0,ESE,3.5,-,0.31,Rain,Rain,120,2013-04-28 09:53:00
6:53 AM,54.0,52.0,93,30.11,2.5,Calm,Calm,-,0.23,Rain,Heavy Rain,0,2013-04-28 10:53:00
7:02 AM,53.6,51.8,94,30.10,3.0,ENE,3.5,-,0.06,Rain,Heavy Rain,70,2013-04-28 11:02:00
7:23 AM,53.6,51.8,94,30.06,9.0,East,5.8,-,0.13,Rain,Light Rain,90,2013-04-28 11:23:00
7:53 AM,55.0,52.0,89,30.07,10.0,Calm,Calm,-,0.13,,Overcast,0,2013-04-28 11:53:00
8:53 AM,55.0,53.1,93,30.09,10.0,Calm,Calm,-,N/A,,Overcast,0,2013-04-28 12:53:00
9:17 AM,55.4,53.6,94,30.12,1.8,Calm,Calm,-,0.03,Rain,Heavy Rain,0,2013-04-28 13:17:00
9:27 AM,55.4,53.6,94,30.11,2.0,Calm,Calm,-,0.08,Rain,Heavy Rain,0,2013-04-28 13:27:00
9:34 AM,55.4,53.6,94,30.11,1.8,Calm,Calm,-,0.11,Rain,Rain,0,2013-04-28 13:34:00
9:42 AM,55.4,53.6,94,30.12,2.5,Calm,Calm,-,0.15,Rain,Rain,0,2013-04-28 13:42:00
9:50 AM,55.4,53.6,94,30.12,3.0,Calm,Calm,-,0.17,Rain,Rain,0,2013-04-28 13:50:00
9:53 AM,55.0,53.1,93,30.13,3.0,Calm,Calm,-,0.18,Rain,Rain,0,2013-04-28 13:53:00
9:59 AM,55.4,53.6,94,30.13,2.0,Calm,Calm,-,0.02,Rain,Rain,0,2013-04-28 13:59:00
10:03 AM,55.4,53.6,94,30.13,1.8,Calm,Calm,-,0.03,Rain,Heavy Rain,0,2013-04-28 14:03:00
10:10 AM,55.4,53.6,94,30.14,0.8,Calm,Calm,-,0.07,Rain,Heavy Rain,0,2013-04-28 14:10:00
10:22 AM,55.4,53.6,94,30.12,1.8,ENE,4.6,-,0.19,Rain,Rain,70,2013-04-28 14:22:00
10:29 AM,55.4,53.6,94,30.11,2.5,ENE,5.8,-,0.22,Rain,Rain,70,2013-04-28 14:29:00
10:44 AM,55.4,53.6,94,30.08,2.5,East,5.8,-,0.28,Rain,Heavy Rain,90,2013-04-28 14:44:00
10:53 AM,55.0,54.0,96,30.09,2.5,ENE,3.5,-,0.33,Rain,Heavy Rain,60,2013-04-28 14:53:00
11:01 AM,55.4,53.6,94,30.11,1.8,West,3.5,-,0.04,Rain,Heavy Rain,280,2013-04-28 15:01:00
11:08 AM,55.4,53.6,94,30.12,1.0,Calm,Calm,-,0.08,Rain,Heavy Rain,0,2013-04-28 15:08:00
11:32 AM,55.4,53.6,94,30.10,2.0,Variable,4.6,-,0.27,Rain,Rain,0,2013-04-28 15:32:00
11:43 AM,55.4,53.6,94,30.09,5.0,Variable,3.5,-,0.30,Rain,Light Rain,0,2013-04-28 15:43:00
11:53 AM,55.9,54.0,93,30.08,6.0,ENE,5.8,-,0.31,Rain,Light Rain,70,2013-04-28 15:53:00
12:03 PM,55.4,53.6,94,30.06,10.0,East,5.8,-,0.00,Rain,Light Rain,80,2013-04-28 16:03:00
12:33 PM,55.4,53.6,94,30.09,1.8,Calm,Calm,-,0.04,Rain,Rain,0,2013-04-28 16:33:00
12:43 PM,55.4,53.6,94,30.08,3.0,Calm,Calm,-,0.08,Rain,Rain,0,2013-04-28 16:43:00
12:53 PM,57.0,55.0,93,30.08,4.0,Calm,Calm,-,0.09,Rain,Rain,0,2013-04-28 16:53:00
1:35 PM,57.2,55.4,94,30.03,9.0,SE,5.8,-,0.05,Rain,Light Rain,140,2013-04-28 17:35:00
1:53 PM,57.9,55.0,90,30.05,10.0,WNW,4.6,-,0.06,Rain,Light Rain,290,2013-04-28 17:53:00
2:05 PM,57.2,55.4,94,30.05,10.0,Calm,Calm,-,0.00,Rain,Light Rain,0,2013-04-28 18:05:00
2:17 PM,57.2,55.4,94,30.03,9.0,Variable,3.5,-,0.00,Rain,Light Rain,0,2013-04-28 18:17:00
2:53 PM,57.9,55.9,93,30.03,10.0,Calm,Calm,-,0.01,Rain,Light Rain,0,2013-04-28 18:53:00
3:53 PM,59.0,55.0,87,29.99,10.0,Calm,Calm,-,0.01,,Overcast,0,2013-04-28 19:53:00
4:17 PM,60.8,55.4,82,29.98,10.0,Calm,Calm,-,N/A,,Overcast,0,2013-04-28 20:17:00
4:53 PM,60.1,55.9,86,29.96,10.0,Calm,Calm,-,N/A,,Overcast,0,2013-04-28 20:53:00
5:16 PM,60.8,55.4,82,29.98,10.0,Calm,Calm,-,N/A,,Overcast,0,2013-04-28 21:16:00
5:53 PM,60.1,57.0,90,29.97,10.0,Calm,Calm,-,N/A,,Mostly Cloudy,0,2013-04-28 21:53:00
6:02 PM,60.8,57.2,88,29.98,10.0,Calm,Calm,-,N/A,,Scattered Clouds,0,2013-04-28 22:02:00
6:53 PM,60.1,55.9,86,29.96,10.0,Variable,3.5,-,N/A,,Clear,0,2013-04-28 22:53:00
7:37 PM,60.8,55.4,82,29.97,10.0,Calm,Calm,-,N/A,,Overcast,0,2013-04-28 23:37:00
7:49 PM,60.8,55.4,82,29.97,10.0,SSW,3.5,-,N/A,,Overcast,200,2013-04-28 23:49:00
7:53 PM,60.1,55.9,86,29.96,10.0,Calm,Calm,-,N/A,,Overcast,0,2013-04-28 23:53:00
8:05 PM,59.0,55.4,88,29.97,10.0,Calm,Calm,-,N/A,,Overcast,0,2013-04-29 00:05:00
8:50 PM,59.0,55.4,88,29.97,10.0,Calm,Calm,-,N/A,,Overcast,0,2013-04-29 00:50:00
8:53 PM,59.0,55.9,90,29.97,10.0,Calm,Calm,-,N/A,,Overcast,0,2013-04-29 00:53:00
9:18 PM,59.0,55.4,88,29.99,10.0,Calm,Calm,-,N/A,,Mostly Cloudy,0,2013-04-29 01:18:00
9:46 PM,59.0,55.4,88,29.99,10.0,Calm,Calm,-,N/A,,Overcast,0,2013-04-29 01:46:00
9:53 PM,59.0,55.9,90,29.99,10.0,Calm,Calm,-,N/A,,Overcast,0,2013-04-29 01:53:00
10:17 PM,59.0,55.4,88,30.00,10.0,Calm,Calm,-,N/A,,Overcast,0,2013-04-29 02:17:00
10:43 PM,59.0,55.4,88,30.00,10.0,Variable,3.5,-,N/A,,Overcast,0,2013-04-29 02:43:00
10:53 PM,59.0,55.9,90,30.00,10.0,Calm,Calm,-,N/A,,Overcast,0,2013-04-29 02:53:00
11:53 PM,59.0,55.0,87,29.99,10.0,Calm,Calm,-,N/A,,Overcast,0,2013-04-29 03:53:00